Location: Poughquag
(41.6090°N, 73.6820°W)
Time: 12:24:38
(UTC-04:00)

A-11 Canister half - Pass Details

Date: 04 June 2020
Orbit: 1527 x 1682 km, 47.3° (Epoch: 06 July)

Event Time Altitude Azimuth Distance (km) Brightness Sun altitude
Rises 06:59:58 0° 235° (SW) 4,676 11.0 15.9°
Reaches altitude 10° 07:03:00 10° 234° (SW) 3,690 10.5 16.5°
Maximum altitude 07:12:17 79° 149° (SSE) 1,554 9.4 18.2°
Drops below altitude 10° 07:21:41 10° 65° (ENE) 3,735 13.0 19.9°
Sets 07:24:46 0° 64° (ENE) 4,736 13.0 20.4°
